User: anonymous   Login
Location: Kellogg
(38.0159°N, 90.0546°W)
Time: 00:00:43
(UTC+00:00)
Language:

A-11 Canister half - Orbit

View from above orbital plane
View from above orbital plane
View from above satellite
View from above satellite

Ground track
Ground track

The orbit data is extracted from the following two-line orbital elements,

1 00051U 60009C   24255.33122060 -.00000008  00000-0  75740-3 0  9991
2 00051  47.2105 241.6274 0105584  81.4664 279.8073 12.18333486852678
Epoch (UTC): 11 September 2024 07:56:57
Eccentricity: 0.0105584
inclination: 47.2105°
perigee height: 1515 km
apogee height: 1684 km
right ascension of ascending node: 241.6274°
argument of perigee: 81.4664°
revolutions per day: 12.18333486
mean anomaly at epoch: 279.8073°
orbit number at epoch: 85267

The dashed part of the orbit path shows where the satellite is in the earth's shadow,  

DLR